Location: Melque
(41.0517°N, 4.4694°W)
Time: 19:58:15
(UTC+00:00)

Meteor 2-20 - Pass Details

Date: 18 March 2026
Orbit: 939 x 958 km, 82.5° (Epoch: 11 April)

Event Time Altitude Azimuth Distance (km) Brightness Sun altitude
Rises 05:45:59 0° 151° (SSE) 3,607 7.8 -8.1°
Reaches altitude 10° 05:48:52 10° 139° (SE) 2,669 7.3 -7.6°
Maximum altitude 05:53:46 26° 86° (E) 1,788 7.1 -6.7°
Drops below altitude 10° 05:58:41 10° 32° (NNE) 2,692 7.4 -5.8°
Sets 06:01:35 0° 20° (NNE) 3,644 7.8 -5.2°
